[[{"header":{"parameterUnit":"m.s-1","parameterCategory":1,"la1":30.2991,"la2":30.254,"lo1":-89.0895,"lo2":-89.0444,"dy":0.0017,"dx":0.0017,"nx":28,"ny":28,"refTime":"2024-08-21T03:00:00:Z","depth":0,"parameterNumber":2,"parameterNumberName":"U-component_of_WINDS"},"data":[0,0,0,0,0,0,0,0,0,0,0,0,0,0,0,0,0,0,0,0,0,0,0,0,0,0,0,0,0,0,0,0,0,0,0,0,0,0,0,0,0,0,0,0,0,0,0,0,0,0,0,0,0,0,0,0,0,0,-1.8217,-1.8218,0,-1.8351,-1.8352,-1.8354,-1.8444,-1.8445,-1.8445,-1.8446,-1.8591,-1.8594,-1.8597,0,0,0,0,0,0,0,0,0,0,0,0,0,-1.8045,-1.8047,-1.8217,-1.8218,-1.822,-1.835,-1.8352,-1.8354,-1.8444,-1.8445,-1.8446,-1.8446,-1.859,-1.8593,-1.8597,0,0,0,0,0,0,0,0,0,0,0,0,0,-1.8143,-1.8048,-1.8217,-1.8281,-1.8288,-1.835,-1.8352,-1.8354,-1.8444,-1.8445,-1.8446,-1.8447,-1.8588,-1.8593,-1.8598,-1.861,0,0,-1.8613,-1.8615,0,0,0,0,0,0,0,0,-1.8137,-1.8149,-1.827,-1.8276,-1.8284,-1.8381,-1.8345,-1.844,-1.8444,-1.8385,-1.8446,-1.8447,-1.8521,-1.8531,-1.8555,-1.8616,-1.8623,-1.8613,-1.8616,-1.8618,-1.862,0,0,0,0,0,0,0,-1.813,-1.8144,-1.827,-1.8271,-1.828,-1.8304,-1.8319,-1.8363,-1.8446,-1.839,-1.8397,-1.8411,-1.8525,-1.855,-1.8559,-1.8625,-1.8613,-1.8618,-1.8621,-1.8623,-1.87,-1.8699,0,0,0,0,0,0,-1.8113,-1.8138,-1.8266,-1.8274,-1.8211,-1.8307,-1.8323,-1.8349,-1.8446,-1.8461,-1.841,-1.8415,-1.8541,-1.8553,-1.8564,-1.8582,-1.8618,-1.8623,-1.8626,-1.8701,-1.87,-1.8699,0,0,0,0,0,0,-1.8109,-1.8123,-1.826,-1.8208,-1.8227,-1.8308,-1.8337,-1.8352,-1.8376,-1.8461,-1.8477,-1.8419,-1.8542,-1.8557,-1.8596,-1.8589,-1.8625,-1.863,-1.8702,-1.8701,-1.8699,-1.8619,0,0,0,0,0,0,-1.8103,-1.8121,-1.8125,-1.8207,-1.8229,-1.8289,-1.8337,-1.8354,-1.8383,-1.8391,-1.8474,-1.8489,-1.8544,-1.8589,-1.8601,-1.8596,-1.8634,-1.8703,-1.8701,-1.87,-1.8623,-1.8615,-1.8609,0,0,0,0,0,-1.8097,-1.81,-1.8125,-1.814,-1.8236,-1.8288,-1.8301,-1.8362,-1.8382,-1.8388,-1.8442,-1.8486,-1.8587,-1.8592,-1.8607,-1.8603,-1.8704,-1.8702,-1.87,-1.8626,-1.8617,-1.8609,0,0,0,0,0,0,-1.8019,-1.8112,-1.8141,-1.817,-1.822,-1.8303,-1.8312,-1.8351,-1.8398,-1.8403,-1.8479,-1.8497,-1.8528,-1.857,-1.8574,-1.8618,-1.8651,-1.8652,-1.859,-1.8582,-1.8574,-1.8564,-1.8638,0,0,0,0,0,-1.8004,-1.8037,-1.8117,-1.8135,-1.8158,-1.823,-1.8255,-1.8297,-1.8353,-1.8376,-1.8433,-1.8487,-1.8531,-1.8559,-1.8604,-1.8629,-1.8648,-1.8634,-1.8627,-1.8621,-1.8621,-1.8635,-1.8629,-1.8692,-1.8692,-1.8693,0,0,-1.7977,-1.8031,-1.8048,-1.8121,-1.8165,-1.8197,-1.8248,-1.8281,-1.8307,-1.8382,-1.8421,-1.8464,-1.853,-1.8561,-1.8578,-1.8597,-1.8607,-1.8618,-1.8612,-1.8616,-1.8632,-1.8626,-1.8621,-1.8691,-1.8691,-1.8692,0,0,-1.7942,-1.7986,-1.8005,-1.8046,-1.811,-1.8157,-1.8161,-1.8238,-1.8268,-1.8308,-1.8364,-1.8397,-1.8471,-1.8515,-1.8547,-1.8524,-1.8566,-1.8537,-1.85,-1.8513,-1.8508,-1.8504,-1.8495,-1.8491,-1.8537,-1.8536,-1.8536,0,-1.7899,-1.7949,-1.801,-1.8039,-1.8069,-1.8135,-1.8154,-1.8193,-1.8269,-1.8289,-1.8308,-1.84,-1.845,-1.8491,-1.8484,-1.8509,-1.8516,-1.8528,-1.8504,-1.85,-1.8497,-1.8489,-1.8486,-1.8532,-1.8533,-1.8533,-1.8534,0,-1.7893,-1.7926,-1.7934,-1.8002,-1.8033,-1.8057,-1.8123,-1.8148,-1.8186,-1.8231,-1.827,-1.8331,-1.8388,-1.8401,-1.8441,-1.8448,-1.8457,-1.8489,-1.8523,-1.8486,-1.848,-1.8477,-1.8526,-1.8528,-1.8529,-1.853,0,0,-1.7816,-1.7913,-1.7915,-1.7945,-1.8019,-1.8047,-1.8074,-1.8126,-1.8145,-1.8195,-1.822,-1.8279,-1.8307,-1.8344,-1.8389,-1.84,-1.8376,-1.8431,-1.8433,-1.8418,-1.8386,-1.836,-1.8356,-1.8404,-1.8404,-1.8403,-1.838,0,-1.7791,-1.784,-1.7894,-1.7925,-1.7956,-1.8017,-1.804,-1.8088,-1.813,-1.8164,-1.8213,-1.8252,-1.8288,-1.8309,-1.8323,-1.8376,-1.8371,-1.8378,-1.8429,-1.843,-1.8409,-1.8353,-1.8328,-1.8302,-1.8378,-1.8377,-1.8377,0,-1.777,-1.7812,-1.7844,-1.7912,-1.7927,-1.7947,-1.7998,-1.8029,-1.8085,-1.8115,-1.8152,-1.8199,-1.8231,-1.826,-1.8306,-1.8309,-1.8333,-1.8362,-1.8362,-1.837,-1.8401,-1.8358,-1.8296,-1.8292,-1.8374,-1.8374,-1.8375,0,-1.7709,-1.7774,-1.7801,-1.7825,-1.7905,-1.7917,-1.7951,-1.8008,-1.8035,-1.808,-1.8098,-1.8148,-1.8175,-1.8213,-1.8272,-1.8288,-1.831,-1.8346,-1.8337,-1.8335,-1.834,-1.8339,-1.828,-1.8355,-1.8355,-1.8355,-1.8355,0,-1.7676,-1.7693,-1.7774,-1.779,-1.7811,-1.7873,-1.7893,-1.7933,-1.7982,-1.8008,-1.8065,-1.8089,-1.8165,-1.8198,-1.8245,-1.8274,-1.8287,-1.8313,-1.8325,-1.8307,-1.8304,-1.8324,-1.8328,-1.8354,-1.8354,-1.8354,-1.8355,0,-1.7611,-1.7666,-1.7699,-1.777,-1.7788,-1.78,-1.7862,-1.7881,-1.7925,-1.7957,-1.7969,-1.8039,-1.808,-1.8142,-1.8204,-1.8235,-1.8257,-1.8278,-1.8237,-1.8244,-1.8232,-1.8232,-1.8184,-1.818,-1.8257,-1.8256,-1.8256,0,-1.7587,-1.7601,-1.7671,-1.7691,-1.7722,-1.7754,-1.7781,-1.7842,-1.7868,-1.793,-1.7941,-1.7986,-1.8026,-1.8089,-1.8147,-1.8194,-1.8216,-1.8196,-1.8224,-1.8204,-1.8215,-1.8213,-1.8214,-1.8189,-1.8188,-1.8187,-1.8186,0,-1.7537,-1.7562,-1.7597,-1.764,-1.7669,-1.7707,-1.7748,-1.7762,-1.7832,-1.7858,-1.7899,-1.7929,-1.7989,-1.8033,-1.8087,-1.8125,-1.8167,-1.8176,-1.8177,-1.8159,-1.8135,-1.8147,-1.8219,-1.8178,-1.8179,-1.8179,-1.818,-1.818,-1.7492,-1.7506,-1.7556,-1.7592,-1.7628,-1.7664,-1.7684,-1.7729,-1.7763,-1.7814,-1.7849,-1.7888,-1.7941,-1.8017,-1.8052,-1.8084,-1.8103,-1.8103,-1.8104,-1.8103,-1.8096,-1.8129,-1.8095,-1.8095,-1.8095,-1.8096,-1.8096,0,-1.7444,-1.7478,-1.7511,-1.7563,-1.7591,-1.7625,-1.7671,-1.7693,-1.7725,-1.777,-1.7806,-1.7852,-1.7894,-1.7953,-1.8,-1.8014,-1.8034,-1.8024,-1.8024,-1.8031,-1.8077,-1.8072,-1.8006,-1.8006,-1.8006,-1.8006,-1.8006,-1.8006,-1.7422,-1.7447,-1.7477,-1.752,-1.7556,-1.7591,-1.7614,-1.7647,-1.7683,-1.773,-1.7764,-1.7801,-1.7852,-1.7902,-1.7942,-1.7958,-1.7973,-1.7956,-1.7979,-1.802,-1.8029,-1.8036,-1.8032,-1.7959,-1.7959,-1.793,-1.793,-1.793]},{"header":{"parameterUnit":"m.s-1","parameterCategory":1,"la1":30.2991,"la2":30.254,"lo1":-89.0895,"lo2":-89.0444,"dy":0.0017,"dx":0.0017,"nx":28,"ny":28,"refTime":"2024-08-21T03:00:00:Z","depth":0,"parameterNumber":3,"parameterNumberName":"V-component_of_WINDS"},"data":[0,0,0,0,0,0,0,0,0,0,0,0,0,0,0,0,0,0,0,0,0,0,0,0,0,0,0,0,0,0,0,0,0,0,0,0,0,0,0,0,0,0,0,0,0,0,0,0,0,0,0,0,0,0,0,0,0,0,-0.2127,-0.2128,0,-0.2233,-0.2235,-0.2236,-0.2279,-0.2278,-0.2278,-0.2278,-0.239,-0.2393,-0.2397,0,0,0,0,0,0,0,0,0,0,0,0,0,-0.1963,-0.1966,-0.2127,-0.2128,-0.2129,-0.2233,-0.2235,-0.2236,-0.2279,-0.2278,-0.2278,-0.2278,-0.2389,-0.2393,-0.2397,0,0,0,0,0,0,0,0,0,0,0,0,0,-0.2049,-0.1967,-0.2126,-0.2163,-0.2167,-0.2233,-0.2235,-0.2237,-0.2279,-0.2278,-0.2278,-0.2277,-0.2388,-0.2393,-0.2397,-0.2436,0,0,-0.2412,-0.2414,0,0,0,0,0,0,0,0,-0.2044,-0.2054,-0.2156,-0.216,-0.2165,-0.2242,-0.2218,-0.2303,-0.2279,-0.2236,-0.2278,-0.2277,-0.2342,-0.235,-0.2371,-0.2441,-0.2446,-0.2413,-0.2416,-0.2418,-0.2419,0,0,0,0,0,0,0,-0.2038,-0.205,-0.2169,-0.2158,-0.2163,-0.2175,-0.2187,-0.2235,-0.229,-0.224,-0.2243,-0.2255,-0.2344,-0.2366,-0.2374,-0.2447,-0.2413,-0.2417,-0.242,-0.2422,-0.2555,-0.2556,0,0,0,0,0,0,-0.2025,-0.2045,-0.2166,-0.2172,-0.2102,-0.2178,-0.2191,-0.2218,-0.229,-0.23,-0.2256,-0.2257,-0.2358,-0.2368,-0.2378,-0.2429,-0.2418,-0.2422,-0.2425,-0.2555,-0.2555,-0.2556,0,0,0,0,0,0,-0.2022,-0.2036,-0.2161,-0.211,-0.2126,-0.2182,-0.2211,-0.222,-0.2243,-0.2301,-0.2312,-0.2268,-0.2358,-0.2371,-0.2421,-0.2433,-0.2425,-0.2429,-0.2554,-0.2555,-0.2556,-0.2529,0,0,0,0,0,0,-0.2017,-0.2034,-0.2048,-0.2109,-0.2129,-0.2201,-0.2212,-0.2223,-0.2251,-0.2253,-0.2316,-0.2326,-0.2359,-0.2414,-0.2426,-0.244,-0.2433,-0.2553,-0.2554,-0.2555,-0.2529,-0.2529,-0.2528,0,0,0,0,0,-0.2011,-0.2037,-0.2049,-0.2063,-0.2148,-0.2202,-0.2213,-0.225,-0.2251,-0.2267,-0.2305,-0.2324,-0.2429,-0.2418,-0.2433,-0.2448,-0.2553,-0.2554,-0.2555,-0.2529,-0.2529,-0.2528,0,0,0,0,0,0,-0.1976,-0.2045,-0.2059,-0.2106,-0.2147,-0.2209,-0.2229,-0.2248,-0.2291,-0.2292,-0.2337,-0.2351,-0.2397,-0.2428,-0.2414,-0.2489,-0.2493,-0.2497,-0.2468,-0.2468,-0.2468,-0.246,-0.2437,0,0,0,0,0,-0.1974,-0.2011,-0.207,-0.2105,-0.2125,-0.2173,-0.2198,-0.2223,-0.2269,-0.2287,-0.2328,-0.2372,-0.2416,-0.2443,-0.2487,-0.2533,-0.2548,-0.2551,-0.2551,-0.255,-0.2554,-0.2582,-0.2584,-0.2561,-0.2561,-0.2561,0,0,-0.197,-0.2012,-0.2033,-0.2099,-0.2135,-0.2173,-0.2188,-0.2228,-0.2258,-0.2293,-0.2343,-0.2374,-0.2427,-0.2475,-0.2499,-0.2502,-0.2563,-0.2552,-0.2551,-0.2555,-0.2583,-0.2585,-0.2587,-0.2562,-0.2561,-0.2561,0,0,-0.1982,-0.2017,-0.2051,-0.2086,-0.2139,-0.2171,-0.2179,-0.2238,-0.226,-0.231,-0.2338,-0.2374,-0.2447,-0.2484,-0.2512,-0.2538,-0.2558,-0.2551,-0.2551,-0.2577,-0.2579,-0.2581,-0.2591,-0.2594,-0.2554,-0.2554,-0.2554,0,-0.197,-0.2029,-0.2066,-0.2105,-0.2134,-0.2167,-0.2202,-0.2235,-0.2299,-0.2319,-0.2322,-0.2415,-0.2452,-0.251,-0.2517,-0.2538,-0.255,-0.2545,-0.2575,-0.2578,-0.258,-0.259,-0.2594,-0.2553,-0.2553,-0.2553,-0.2554,0,-0.2012,-0.2052,-0.2073,-0.2134,-0.2166,-0.2202,-0.2247,-0.2274,-0.2296,-0.2328,-0.2379,-0.2426,-0.2479,-0.2495,-0.2517,-0.2556,-0.2556,-0.2567,-0.2571,-0.2581,-0.2591,-0.2595,-0.2552,-0.2552,-0.2552,-0.2553,0,0,-0.2006,-0.2087,-0.2094,-0.2123,-0.2184,-0.2216,-0.2255,-0.2306,-0.2329,-0.2373,-0.2407,-0.2469,-0.2478,-0.251,-0.2537,-0.256,-0.2579,-0.2568,-0.257,-0.2569,-0.2626,-0.2619,-0.2623,-0.2593,-0.2593,-0.2594,-0.2622,0,-0.2027,-0.2097,-0.2132,-0.2187,-0.2225,-0.2258,-0.2292,-0.2334,-0.2365,-0.2402,-0.2437,-0.248,-0.249,-0.2509,-0.2534,-0.2572,-0.2592,-0.257,-0.2626,-0.2628,-0.2612,-0.2628,-0.262,-0.2644,-0.2627,-0.2627,-0.2628,0,-0.206,-0.2103,-0.2162,-0.2219,-0.2236,-0.2266,-0.2317,-0.2352,-0.24,-0.2422,-0.2457,-0.2483,-0.2527,-0.2527,-0.2588,-0.2573,-0.2598,-0.262,-0.2622,-0.2629,-0.2629,-0.2636,-0.2653,-0.2657,-0.2635,-0.2634,-0.2633,0,-0.2051,-0.2123,-0.2168,-0.2191,-0.2259,-0.2279,-0.2308,-0.2356,-0.2385,-0.2429,-0.2449,-0.2498,-0.2525,-0.2562,-0.2602,-0.2598,-0.2659,-0.2663,-0.2679,-0.2678,-0.269,-0.2689,-0.2712,-0.2705,-0.2705,-0.2705,-0.2705,0,-0.2071,-0.2106,-0.2164,-0.2192,-0.2232,-0.2273,-0.2312,-0.2344,-0.2387,-0.2422,-0.2453,-0.2486,-0.2535,-0.2574,-0.2605,-0.2651,-0.2663,-0.2682,-0.269,-0.268,-0.2677,-0.2697,-0.2697,-0.2706,-0.2706,-0.2706,-0.2705,0,-0.2067,-0.2107,-0.2158,-0.2218,-0.2234,-0.2262,-0.2314,-0.2342,-0.2375,-0.2419,-0.2432,-0.2483,-0.2531,-0.2573,-0.2637,-0.2658,-0.2705,-0.2714,-0.2688,-0.2693,-0.2706,-0.2705,-0.2743,-0.2751,-0.2738,-0.2738,-0.2738,0,-0.2077,-0.2105,-0.2168,-0.2193,-0.2222,-0.2262,-0.2292,-0.2334,-0.2363,-0.2421,-0.2443,-0.2492,-0.2534,-0.2609,-0.2653,-0.2701,-0.2713,-0.2723,-0.272,-0.2709,-0.2714,-0.2712,-0.2715,-0.2723,-0.2723,-0.2723,-0.2723,0,-0.2091,-0.211,-0.2151,-0.22,-0.2234,-0.2274,-0.2315,-0.2335,-0.2384,-0.2416,-0.2465,-0.2497,-0.2562,-0.2611,-0.2665,-0.2696,-0.2718,-0.2723,-0.2729,-0.272,-0.2703,-0.2713,-0.2688,-0.2722,-0.2722,-0.2722,-0.2722,-0.2722,-0.2096,-0.2122,-0.2171,-0.2216,-0.2251,-0.2289,-0.2319,-0.2355,-0.2396,-0.2452,-0.2474,-0.2524,-0.2573,-0.2647,-0.2678,-0.2718,-0.2722,-0.2731,-0.2734,-0.2735,-0.2734,-0.2696,-0.2728,-0.2728,-0.2728,-0.2728,-0.2728,0,-0.2112,-0.2145,-0.2186,-0.2243,-0.2279,-0.2295,-0.2342,-0.2371,-0.2414,-0.2457,-0.2498,-0.2554,-0.2602,-0.265,-0.27,-0.2724,-0.2735,-0.2736,-0.2735,-0.2742,-0.2727,-0.2717,-0.2725,-0.2725,-0.2725,-0.2725,-0.2725,-0.2725,-0.2125,-0.2171,-0.2196,-0.226,-0.2293,-0.2342,-0.2367,-0.2403,-0.2437,-0.2499,-0.2539,-0.2569,-0.2614,-0.2669,-0.2714,-0.2726,-0.2744,-0.2742,-0.2757,-0.2743,-0.2743,-0.2742,-0.2733,-0.2745,-0.2745,-0.2769,-0.2769,-0.2769]}]]